GFSWCAN_prec_precacc6_084.txt.gz
Total_Precipitation_Accumulation
0.02 0.01 0.01 0.01 0.02 0.04 0.05 0.05 0.05 0.05 0.05 0.05 0.04 0.03 0.02 0.02 0.04 0.09 0.17 0.17 0.29 0.43 0.08 0.01 0.07 0.01 0.00 0.01 0.00 0.00 0.01 0.00 0.04 0.03 0.01 0.02 0.01 0.01 0.01 0.03 0.08 0.06 0.01 0.01 0.00 0.02 0.01 0.00 0.00 0.00 0.00 0.00 0.00 0.00
0.00 0.00 0.02 0.05 0.07 0.08 0.09 0.10 0.09 0.09 0.07 0.08 0.09 0.10 0.07 0.04 0.05 0.09 0.15 0.09 0.10 0.34 0.20 0.04 0.01 0.01 0.00 0.00 0.01 0.01 0.00 0.00 0.04 0.04 0.02 0.01 0.02 0.01 0.00 0.00 0.00 0.01 0.00 0.01 0.00 0.00 0.00 0.01 0.00 0.00 0.00 0.00 0.00 0.00
0.01 0.04 0.06 0.05 0.04 0.03 0.04 0.05 0.05 0.06 0.09 0.09 0.09 0.12 0.18 0.11 0.09 0.12 0.19 0.08 0.14 0.54 0.37 0.13 0.03 0.01 0.06 0.01 0.06 0.08 0.00 0.00 0.01 0.02 0.08 0.06 0.03 0.00 0.00 0.00 0.00 0.00 0.00 0.00 0.01 0.00 0.01 0.02 0.03 0.00 0.00 0.00 0.00 0.00
0.06 0.06 0.03 0.01 0.04 0.11 0.17 0.19 0.11 0.06 0.04 0.07 0.08 0.09 0.18 0.23 0.16 0.21 0.18 0.08 0.19 0.65 0.41 0.10 0.01 0.01 0.03 0.06 0.03 0.09 0.02 0.04 0.03 0.06 0.20 0.16 0.05 0.02 0.00 0.00 0.00 0.00 0.00 0.00 0.00 0.00 0.00 0.00 0.00 0.01 0.00 0.00 0.00 0.00
0.06 0.01 0.01 0.04 0.06 0.02 0.02 0.08 0.13 0.07 0.07 0.05 0.06 0.07 0.16 0.28 0.24 0.35 0.15 0.08 0.14 0.21 0.16 0.03 0.01 0.01 0.02 0.04 0.07 0.06 0.07 0.09 0.06 0.05 0.09 0.09 0.06 0.06 0.03 0.00 0.00 0.00 0.00 0.00 0.00 0.00 0.00 0.00 0.00 0.00 0.00 0.00 0.00 0.00
0.02 0.02 0.01 0.05 0.01 0.01 0.01 0.04 0.10 0.09 0.07 0.04 0.05 0.07 0.18 0.33 0.41 0.58 0.62 0.31 0.07 0.09 0.18 0.05 0.02 0.02 0.04 0.01 0.07 0.05 0.05 0.06 0.05 0.14 0.07 0.06 0.03 0.12 0.08 0.01 0.00 0.00 0.00 0.00 0.00 0.00 0.00 0.00 0.00 0.00 0.00 0.00 0.00 0.00
0.02 0.01 0.01 0.03 0.01 0.01 0.01 0.03 0.09 0.08 0.07 0.08 0.08 0.16 0.32 0.45 0.44 0.47 0.46 0.41 0.18 0.19 0.40 0.08 0.02 0.05 0.07 0.02 0.01 0.04 0.01 0.03 0.04 0.16 0.23 0.05 0.03 0.10 0.07 0.01 0.00 0.00 0.00 0.00 0.00 0.00 0.00 0.00 0.01 0.00 0.00 0.00 0.00 0.01
0.04 0.02 0.02 0.03 0.03 0.03 0.03 0.04 0.07 0.12 0.13 0.14 0.23 0.38 0.41 0.40 0.28 0.12 0.01 0.01 0.06 0.30 0.32 0.04 0.04 0.06 0.11 0.04 0.01 0.01 0.01 0.03 0.04 0.10 0.17 0.17 0.05 0.05 0.02 0.00 0.00 0.00 0.00 0.00 0.00 0.00 0.00 0.00 0.00 0.00 0.00 0.00 0.00 0.00
0.08 0.07 0.07 0.05 0.05 0.05 0.06 0.07 0.10 0.14 0.19 0.32 0.48 0.51 0.48 0.38 0.30 0.17 0.08 0.10 0.10 0.27 0.10 0.00 0.00 0.00 0.02 0.01 0.01 0.01 0.01 0.02 0.03 0.04 0.05 0.17 0.23 0.11 0.01 0.00 0.00 0.00 0.00 0.00 0.00 0.00 0.00 0.00 0.00 0.00 0.00 0.00 0.00 0.00
0.12 0.11 0.10 0.11 0.11 0.09 0.08 0.07 0.10 0.17 0.24 0.26 0.24 0.31 0.63 0.30 0.09 0.08 0.17 0.25 0.20 0.10 0.01 0.00 0.00 0.00 0.02 0.04 0.05 0.03 0.04 0.03 0.05 0.02 0.06 0.11 0.14 0.11 0.08 0.14 0.02 0.00 0.00 0.00 0.00 0.00 0.00 0.00 0.00 0.00 0.00 0.00 0.00 0.00
0.10 0.16 0.21 0.23 0.21 0.19 0.17 0.16 0.13 0.09 0.06 0.06 0.11 0.38 0.40 0.16 0.07 0.10 0.17 0.13 0.07 0.02 0.00 0.00 0.00 0.00 0.00 0.01 0.05 0.08 0.09 0.04 0.01 0.03 0.05 0.11 0.03 0.08 0.17 0.16 0.08 0.01 0.00 0.00 0.00 0.00 0.00 0.00 0.00 0.00 0.00 0.00 0.00 0.00
0.07 0.09 0.11 0.16 0.20 0.21 0.15 0.09 0.05 0.02 0.02 0.01 0.05 0.13 0.08 0.03 0.01 0.01 0.02 0.04 0.00 0.00 0.00 0.00 0.00 0.00 0.00 0.00 0.03 0.12 0.11 0.16 0.03 0.06 0.03 0.04 0.08 0.01 0.02 0.04 0.06 0.05 0.04 0.03 0.02 0.01 0.00 0.00 0.00 0.00 0.00 0.00 0.00 0.00
0.02 0.03 0.05 0.06 0.06 0.06 0.04 0.02 0.00 0.00 0.00 0.00 0.00 0.00 0.01 0.00 0.00 0.00 0.01 0.00 0.00 0.01 0.00 0.00 0.00 0.01 0.02 0.02 0.03 0.15 0.11 0.06 0.12 0.11 0.02 0.00 0.03 0.05 0.01 0.00 0.00 0.02 0.10 0.03 0.01 0.01 0.00 0.00 0.00 0.00 0.00 0.00 0.01 0.05
0.00 0.00 0.01 0.03 0.03 0.02 0.00 0.00 0.00 0.00 0.00 0.00 0.00 0.00 0.01 0.02 0.05 0.05 0.02 0.00 0.01 0.01 0.01 0.00 0.01 0.08 0.09 0.07 0.07 0.09 0.12 0.05 0.15 0.11 0.01 0.01 0.01 0.02 0.04 0.03 0.01 0.00 0.08 0.14 0.01 0.00 0.00 0.00 0.01 0.01 0.02 0.03 0.03 0.10
0.00 0.00 0.00 0.00 0.00 0.00 0.00 0.00 0.00 0.00 0.00 0.00 0.00 0.02 0.04 0.08 0.09 0.06 0.03 0.01 0.02 0.01 0.01 0.09 0.15 0.18 0.25 0.21 0.15 0.14 0.26 0.13 0.08 0.09 0.04 0.03 0.02 0.02 0.02 0.02 0.01 0.01 0.01 0.01 0.02 0.03 0.03 0.03 0.05 0.10 0.13 0.13 0.10 0.11
0.00 0.00 0.00 0.00 0.00 0.00 0.00 0.00 0.00 0.00 0.00 0.00 0.01 0.03 0.04 0.02 0.01 0.01 0.02 0.02 0.01 0.02 0.09 0.29 0.42 0.40 0.35 0.30 0.26 0.15 0.16 0.07 0.04 0.04 0.05 0.04 0.04 0.05 0.05 0.04 0.04 0.04 0.04 0.05 0.07 0.09 0.12 0.14 0.13 0.16 0.18 0.16 0.15 0.10
0.00 0.00 0.00 0.00 0.00 0.00 0.00 0.00 0.00 0.00 0.00 0.00 0.01 0.02 0.03 0.02 0.03 0.04 0.05 0.03 0.02 0.04 0.14 0.25 0.32 0.30 0.28 0.16 0.10 0.05 0.05 0.04 0.05 0.06 0.08 0.08 0.09 0.11 0.11 0.10 0.11 0.11 0.12 0.12 0.15 0.16 0.18 0.18 0.13 0.09 0.11 0.10 0.05 0.03
0.00 0.00 0.00 0.00 0.00 0.00 0.00 0.00 0.00 0.00 0.00 0.01 0.02 0.03 0.01 0.03 0.04 0.04 0.05 0.06 0.05 0.06 0.10 0.13 0.12 0.16 0.17 0.12 0.10 0.11 0.12 0.11 0.12 0.15 0.17 0.18 0.18 0.18 0.15 0.16 0.18 0.15 0.15 0.15 0.13 0.12 0.10 0.07 0.05 0.05 0.03 0.02 0.01 0.00
0.00 0.00 0.00 0.00 0.00 0.00 0.00 0.00 0.00 0.00 0.01 0.01 0.03 0.06 0.06 0.05 0.04 0.05 0.05 0.06 0.11 0.18 0.16 0.14 0.13 0.19 0.20 0.22 0.17 0.19 0.20 0.18 0.20 0.25 0.26 0.24 0.22 0.20 0.20 0.17 0.17 0.16 0.14 0.12 0.08 0.07 0.07 0.05 0.03 0.02 0.01 0.00 0.01 0.00
0.00 0.00 0.00 0.00 0.00 0.00 0.00 0.00 0.01 0.01 0.02 0.02 0.04 0.07 0.06 0.07 0.03 0.01 0.01 0.01 0.03 0.08 0.11 0.10 0.15 0.27 0.32 0.30 0.19 0.18 0.22 0.24 0.18 0.20 0.28 0.29 0.26 0.21 0.21 0.16 0.15 0.11 0.07 0.06 0.04 0.02 0.01 0.01 0.00 0.00 0.00 0.00 0.00 0.01
0.01 0.01 0.00 0.00 0.00 0.00 0.00 0.02 0.02 0.02 0.03 0.04 0.08 0.05 0.05 0.01 0.00 0.00 0.00 0.00 0.02 0.07 0.14 0.17 0.17 0.32 0.37 0.26 0.19 0.14 0.17 0.16 0.23 0.18 0.16 0.21 0.22 0.14 0.15 0.12 0.08 0.06 0.04 0.03 0.02 0.01 0.00 0.01 0.01 0.00 0.00 0.00 0.00 0.00
0.07 0.05 0.03 0.01 0.01 0.00 0.03 0.03 0.01 0.02 0.01 0.03 0.04 0.02 0.02 0.02 0.01 0.01 0.00 0.01 0.07 0.12 0.16 0.15 0.15 0.18 0.16 0.21 0.21 0.16 0.15 0.13 0.15 0.15 0.13 0.09 0.10 0.09 0.09 0.08 0.04 0.03 0.02 0.01 0.00 0.00 0.00 0.00 0.00 0.00 0.00 0.00 0.00 0.00
0.01 0.01 0.01 0.01 0.01 0.03 0.07 0.08 0.07 0.08 0.08 0.08 0.05 0.04 0.05 0.03 0.04 0.01 0.02 0.05 0.11 0.17 0.14 0.13 0.15 0.14 0.13 0.17 0.11 0.14 0.12 0.08 0.10 0.10 0.09 0.07 0.07 0.05 0.03 0.02 0.01 0.00 0.00 0.00 0.00 0.00 0.00 0.00 0.00 0.00 0.00 0.00 0.00 0.00
0.00 0.00 0.00 0.00 0.00 0.02 0.02 0.02 0.04 0.04 0.03 0.04 0.04 0.05 0.07 0.07 0.03 0.02 0.04 0.08 0.14 0.11 0.13 0.12 0.10 0.11 0.09 0.08 0.10 0.12 0.15 0.09 0.07 0.08 0.08 0.03 0.02 0.02 0.00 0.00 0.00 0.00 0.00 0.00 0.00 0.00 0.00 0.00 0.00 0.00 0.00 0.00 0.00 0.00
0.00 0.00 0.00 0.00 0.00 0.00 0.00 0.00 0.00 0.00 0.00 0.00 0.00 0.02 0.04 0.02 0.01 0.03 0.05 0.08 0.07 0.09 0.10 0.09 0.07 0.08 0.08 0.09 0.10 0.10 0.12 0.10 0.06 0.04 0.07 0.03 0.01 0.00 0.00 0.00 0.00 0.00 0.00 0.00 0.00 0.00 0.00 0.00 0.00 0.00 0.00 0.00 0.00 0.00
0.00 0.00 0.00 0.00 0.00 0.00 0.00 0.01 0.01 0.01 0.00 0.01 0.01 0.01 0.00 0.00 0.00 0.01 0.03 0.04 0.03 0.05 0.07 0.06 0.06 0.05 0.07 0.08 0.08 0.08 0.10 0.09 0.05 0.04 0.04 0.01 0.00 0.00 0.00 0.00 0.00 0.01 0.00 0.00 0.00 0.00 0.00 0.00 0.00 0.00 0.00 0.00 0.00 0.00
0.00 0.00 0.00 0.00 0.00 0.01 0.00 0.00 0.00 0.00 0.00 0.01 0.01 0.00 0.00 0.00 0.01 0.03 0.03 0.02 0.02 0.04 0.04 0.04 0.03 0.05 0.06 0.08 0.08 0.08 0.06 0.04 0.03 0.02 0.01 0.00 0.00 0.00 0.00 0.00 0.01 0.01 0.00 0.00 0.00 0.00 0.00 0.00 0.00 0.00 0.00 0.00 0.00 0.00
0.00 0.00 0.00 0.00 0.00 0.00 0.00 0.00 0.00 0.01 0.01 0.01 0.01 0.00 0.00 0.01 0.02 0.03 0.02 0.03 0.02 0.03 0.04 0.05 0.05 0.05 0.05 0.04 0.02 0.01 0.01 0.01 0.00 0.00 0.00 0.00 0.00 0.00 0.00 0.00 0.00 0.00 0.00 0.00 0.00 0.00 0.00 0.00 0.00 0.00 0.00 0.00 0.00 0.00
0.01 0.00 0.00 0.00 0.00 0.00 0.01 0.01 0.01 0.01 0.01 0.01 0.01 0.01 0.01 0.05 0.06 0.04 0.05 0.04 0.04 0.03 0.04 0.04 0.06 0.05 0.05 0.05 0.04 0.03 0.01 0.00 0.00 0.00 0.00 0.00 0.00 0.00 0.00 0.00 0.00 0.00 0.00 0.00 0.00 0.00 0.00 0.00 0.00 0.00 0.00 0.00 0.00 0.00
0.00 0.00 0.00 0.00 0.00 0.01 0.02 0.01 0.02 0.01 0.00 0.00 0.00 0.01 0.01 0.04 0.07 0.04 0.03 0.03 0.04 0.05 0.06 0.05 0.05 0.03 0.02 0.02 0.01 0.01 0.00 0.00 0.00 0.00 0.00 0.00 0.00 0.00 0.00 0.00 0.00 0.00 0.00 0.00 0.00 0.00 0.00 0.00 0.00 0.00 0.00 0.00 0.00 0.00
0.00 0.00 0.00 0.00 0.01 0.01 0.00 0.00 0.00 0.00 0.00 0.00 0.00 0.00 0.01 0.02 0.02 0.02 0.04 0.05 0.04 0.04 0.04 0.04 0.05 0.05 0.02 0.00 0.00 0.00 0.00 0.00 0.00 0.00 0.00 0.00 0.00 0.00 0.00 0.00 0.00 0.00 0.00 0.00 0.00 0.00 0.00 0.00 0.00 0.00 0.00 0.00 0.00 0.00
0.00 0.00 0.00 0.00 0.00 0.00 0.02 0.03 0.01 0.01 0.01 0.00 0.01 0.01 0.01 0.01 0.01 0.01 0.02 0.04 0.03 0.03 0.04 0.03 0.03 0.02 0.01 0.00 0.00 0.00 0.00 0.00 0.00 0.00 0.00 0.00 0.00 0.00 0.00 0.00 0.00 0.00 0.00 0.00 0.00 0.00 0.00 0.00 0.00 0.00 0.00 0.00 0.00 0.00
0.00 0.00 0.00 0.00 0.00 0.01 0.00 0.02 0.00 0.01 0.01 0.01 0.01 0.01 0.01 0.00 0.01 0.01 0.01 0.03 0.02 0.01 0.02 0.01 0.01 0.00 0.00 0.00 0.00 0.00 0.00 0.00 0.00 0.00 0.00 0.00 0.00 0.00 0.00 0.00 0.00 0.00 0.00 0.00 0.00 0.00 0.00 0.00 0.00 0.00 0.00 0.00 0.00 0.00

GFSWCAN_prec_precacc6_087.txt.gz
Total_Precipitation_Accumulation
0.04 0.04 0.03 0.02 0.02 0.01 0.01 0.01 0.01 0.01 0.01 0.01 0.02 0.01 0.01 0.03 0.07 0.18 0.32 0.31 0.25 0.36 0.07 0.00 0.00 0.00 0.00 0.00 0.00 0.00 0.00 0.00 0.00 0.00 0.00 0.00 0.01 0.00 0.01 0.03 0.09 0.22 0.19 0.06 0.04 0.03 0.01 0.00 0.01 0.00 0.01 0.00 0.00 0.00
0.02 0.01 0.01 0.00 0.01 0.02 0.03 0.05 0.07 0.07 0.05 0.05 0.05 0.05 0.04 0.03 0.04 0.13 0.17 0.14 0.16 0.35 0.18 0.01 0.00 0.00 0.00 0.00 0.00 0.00 0.00 0.00 0.00 0.00 0.00 0.01 0.01 0.01 0.00 0.00 0.00 0.02 0.04 0.04 0.01 0.00 0.00 0.00 0.01 0.00 0.00 0.00 0.00 0.00
0.01 0.01 0.02 0.04 0.04 0.04 0.05 0.05 0.07 0.09 0.11 0.11 0.09 0.08 0.10 0.09 0.07 0.10 0.12 0.07 0.09 0.28 0.25 0.08 0.02 0.00 0.00 0.00 0.01 0.02 0.00 0.00 0.00 0.00 0.03 0.04 0.02 0.01 0.01 0.01 0.00 0.00 0.00 0.00 0.01 0.00 0.00 0.00 0.00 0.00 0.00 0.00 0.00 0.00
0.03 0.03 0.03 0.02 0.02 0.02 0.03 0.05 0.06 0.07 0.06 0.10 0.13 0.11 0.13 0.18 0.15 0.14 0.18 0.15 0.04 0.19 0.23 0.05 0.01 0.00 0.00 0.01 0.01 0.04 0.02 0.06 0.05 0.06 0.08 0.08 0.04 0.02 0.00 0.00 0.00 0.00 0.01 0.01 0.00 0.00 0.00 0.00 0.00 0.00 0.00 0.00 0.00 0.00
0.05 0.02 0.03 0.03 0.02 0.01 0.01 0.03 0.05 0.07 0.10 0.08 0.10 0.11 0.16 0.23 0.21 0.23 0.26 0.16 0.02 0.09 0.12 0.01 0.00 0.01 0.00 0.04 0.06 0.03 0.07 0.10 0.05 0.03 0.05 0.06 0.05 0.07 0.05 0.02 0.00 0.00 0.00 0.00 0.00 0.00 0.00 0.00 0.00 0.00 0.00 0.00 0.00 0.00
0.02 0.05 0.02 0.02 0.01 0.00 0.01 0.03 0.09 0.10 0.10 0.09 0.11 0.11 0.16 0.27 0.33 0.66 0.80 0.33 0.03 0.04 0.26 0.11 0.01 0.02 0.04 0.02 0.07 0.05 0.06 0.11 0.08 0.04 0.03 0.04 0.04 0.14 0.10 0.01 0.00 0.00 0.00 0.00 0.00 0.00 0.00 0.00 0.00 0.00 0.00 0.00 0.00 0.00
0.04 0.01 0.01 0.03 0.01 0.01 0.01 0.03 0.19 0.19 0.10 0.08 0.12 0.14 0.21 0.38 0.63 0.54 0.26 0.13 0.04 0.15 0.43 0.30 0.07 0.04 0.11 0.06 0.03 0.07 0.05 0.10 0.10 0.11 0.03 0.01 0.02 0.10 0.08 0.03 0.00 0.00 0.00 0.00 0.00 0.01 0.00 0.00 0.01 0.01 0.01 0.02 0.02 0.02
0.05 0.02 0.00 0.01 0.01 0.01 0.01 0.02 0.10 0.16 0.10 0.13 0.19 0.21 0.28 0.45 0.32 0.08 0.04 0.00 0.04 0.30 0.46 0.49 0.20 0.07 0.17 0.12 0.04 0.02 0.06 0.10 0.08 0.06 0.02 0.00 0.00 0.00 0.01 0.00 0.00 0.00 0.00 0.00 0.00 0.01 0.02 0.03 0.02 0.02 0.01 0.02 0.02 0.01
0.06 0.06 0.04 0.03 0.02 0.02 0.03 0.04 0.05 0.10 0.16 0.24 0.33 0.47 0.66 0.46 0.28 0.10 0.05 0.07 0.10 0.31 0.27 0.21 0.20 0.08 0.15 0.11 0.04 0.03 0.02 0.03 0.00 0.00 0.00 0.00 0.05 0.08 0.00 0.00 0.00 0.00 0.00 0.00 0.00 0.01 0.01 0.03 0.04 0.03 0.02 0.02 0.01 0.01
0.06 0.07 0.08 0.09 0.09 0.08 0.06 0.07 0.10 0.16 0.25 0.31 0.37 0.47 0.66 0.27 0.09 0.13 0.27 0.35 0.29 0.23 0.14 0.04 0.05 0.04 0.06 0.07 0.06 0.03 0.00 0.00 0.00 0.00 0.01 0.00 0.03 0.10 0.06 0.09 0.02 0.00 0.00 0.00 0.00 0.00 0.00 0.00 0.00 0.00 0.00 0.00 0.00 0.00
0.03 0.06 0.07 0.07 0.08 0.08 0.08 0.08 0.07 0.06 0.05 0.05 0.12 0.46 0.45 0.15 0.11 0.25 0.34 0.29 0.18 0.10 0.11 0.03 0.01 0.01 0.01 0.01 0.00 0.00 0.01 0.00 0.00 0.00 0.00 0.01 0.01 0.03 0.09 0.11 0.06 0.01 0.00 0.00 0.00 0.00 0.00 0.00 0.00 0.00 0.00 0.00 0.00 0.00
0.06 0.07 0.07 0.07 0.07 0.06 0.04 0.02 0.01 0.01 0.00 0.00 0.08 0.17 0.12 0.14 0.11 0.11 0.07 0.09 0.02 0.00 0.00 0.00 0.00 0.00 0.00 0.00 0.00 0.00 0.04 0.14 0.01 0.03 0.01 0.01 0.01 0.01 0.02 0.04 0.08 0.10 0.06 0.03 0.02 0.01 0.00 0.00 0.00 0.00 0.00 0.00 0.00 0.00
0.02 0.04 0.05 0.04 0.03 0.01 0.02 0.02 0.01 0.01 0.00 0.00 0.00 0.03 0.07 0.05 0.02 0.01 0.00 0.00 0.00 0.00 0.00 0.00 0.00 0.00 0.00 0.00 0.00 0.01 0.04 0.05 0.06 0.09 0.02 0.00 0.02 0.04 0.01 0.00 0.01 0.06 0.12 0.04 0.02 0.01 0.01 0.01 0.01 0.01 0.00 0.00 0.00 0.00
0.01 0.01 0.01 0.03 0.03 0.01 0.00 0.00 0.01 0.00 0.00 0.00 0.00 0.00 0.00 0.01 0.03 0.03 0.01 0.00 0.01 0.00 0.00 0.00 0.00 0.00 0.01 0.02 0.03 0.03 0.09 0.05 0.03 0.02 0.00 0.01 0.01 0.02 0.04 0.05 0.01 0.01 0.11 0.36 0.19 0.03 0.03 0.04 0.02 0.04 0.04 0.02 0.02 0.05
0.00 0.00 0.00 0.00 0.00 0.00 0.00 0.00 0.00 0.00 0.00 0.00 0.00 0.01 0.04 0.07 0.07 0.06 0.03 0.01 0.03 0.02 0.00 0.00 0.02 0.04 0.10 0.12 0.08 0.06 0.13 0.26 0.06 0.01 0.01 0.02 0.02 0.03 0.03 0.04 0.05 0.06 0.08 0.17 0.34 0.32 0.14 0.09 0.03 0.04 0.06 0.07 0.05 0.08
0.00 0.00 0.00 0.00 0.00 0.00 0.00 0.00 0.00 0.00 0.00 0.00 0.02 0.02 0.04 0.04 0.02 0.02 0.02 0.02 0.04 0.03 0.05 0.14 0.20 0.18 0.20 0.17 0.24 0.15 0.08 0.04 0.04 0.02 0.04 0.04 0.04 0.06 0.06 0.05 0.04 0.04 0.07 0.10 0.13 0.09 0.08 0.07 0.06 0.10 0.14 0.15 0.17 0.14
0.00 0.00 0.00 0.00 0.00 0.00 0.00 0.00 0.00 0.00 0.00 0.00 0.01 0.02 0.02 0.01 0.02 0.03 0.04 0.03 0.03 0.07 0.16 0.21 0.20 0.20 0.20 0.10 0.06 0.05 0.04 0.02 0.03 0.04 0.05 0.05 0.05 0.07 0.07 0.07 0.07 0.06 0.07 0.07 0.08 0.07 0.10 0.13 0.11 0.09 0.14 0.16 0.11 0.08
0.00 0.00 0.00 0.00 0.00 0.00 0.00 0.00 0.00 0.00 0.00 0.02 0.02 0.02 0.00 0.02 0.03 0.03 0.05 0.05 0.05 0.05 0.07 0.11 0.10 0.11 0.13 0.09 0.07 0.06 0.06 0.08 0.08 0.07 0.10 0.11 0.10 0.11 0.09 0.10 0.13 0.11 0.11 0.13 0.12 0.13 0.12 0.10 0.08 0.09 0.08 0.07 0.05 0.03
0.00 0.00 0.00 0.00 0.00 0.00 0.00 0.00 0.00 0.00 0.01 0.01 0.03 0.03 0.02 0.03 0.04 0.05 0.05 0.06 0.11 0.14 0.13 0.14 0.11 0.11 0.11 0.13 0.11 0.11 0.10 0.07 0.11 0.12 0.14 0.15 0.15 0.15 0.16 0.15 0.16 0.15 0.14 0.14 0.11 0.10 0.12 0.09 0.07 0.05 0.03 0.02 0.01 0.00
0.00 0.00 0.00 0.00 0.00 0.00 0.00 0.00 0.00 0.00 0.01 0.01 0.02 0.04 0.04 0.06 0.03 0.01 0.02 0.03 0.06 0.09 0.13 0.13 0.17 0.17 0.20 0.18 0.12 0.14 0.17 0.17 0.11 0.14 0.21 0.23 0.23 0.21 0.23 0.19 0.19 0.16 0.13 0.12 0.10 0.07 0.05 0.04 0.02 0.01 0.00 0.00 0.00 0.00
0.00 0.00 0.00 0.00 0.00 0.00 0.00 0.00 0.00 0.01 0.02 0.03 0.07 0.04 0.04 0.01 0.00 0.00 0.01 0.01 0.05 0.13 0.17 0.20 0.17 0.26 0.30 0.24 0.14 0.11 0.15 0.13 0.18 0.17 0.17 0.22 0.25 0.17 0.19 0.17 0.13 0.12 0.09 0.08 0.06 0.05 0.02 0.01 0.01 0.00 0.00 0.00 0.00 0.00
0.02 0.01 0.00 0.00 0.00 0.00 0.02 0.02 0.01 0.02 0.01 0.03 0.05 0.02 0.02 0.01 0.00 0.00 0.00 0.03 0.13 0.18 0.21 0.18 0.15 0.18 0.15 0.21 0.19 0.15 0.13 0.12 0.16 0.18 0.18 0.13 0.15 0.15 0.15 0.16 0.10 0.09 0.07 0.05 0.02 0.01 0.01 0.00 0.00 0.00 0.00 0.00 0.00 0.00
0.00 0.01 0.01 0.00 0.00 0.01 0.07 0.09 0.04 0.06 0.05 0.05 0.02 0.01 0.02 0.01 0.01 0.00 0.01 0.05 0.12 0.16 0.15 0.13 0.13 0.13 0.10 0.15 0.10 0.13 0.13 0.09 0.12 0.13 0.13 0.13 0.13 0.12 0.09 0.09 0.07 0.03 0.02 0.01 0.00 0.00 0.00 0.00 0.00 0.00 0.00 0.00 0.00 0.00
0.00 0.00 0.00 0.00 0.00 0.03 0.03 0.03 0.05 0.04 0.04 0.05 0.04 0.05 0.06 0.04 0.01 0.00 0.02 0.05 0.10 0.08 0.07 0.09 0.09 0.09 0.08 0.06 0.08 0.09 0.14 0.10 0.07 0.09 0.11 0.06 0.05 0.07 0.04 0.02 0.01 0.00 0.00 0.00 0.00 0.00 0.00 0.00 0.00 0.00 0.00 0.00 0.00 0.00
0.00 0.00 0.00 0.00 0.00 0.00 0.00 0.00 0.00 0.00 0.00 0.00 0.00 0.03 0.05 0.02 0.01 0.02 0.03 0.05 0.05 0.06 0.07 0.07 0.07 0.07 0.07 0.08 0.09 0.09 0.11 0.10 0.06 0.05 0.10 0.07 0.03 0.01 0.00 0.00 0.00 0.00 0.00 0.00 0.00 0.00 0.00 0.00 0.00 0.00 0.00 0.00 0.00 0.00
0.00 0.00 0.00 0.00 0.00 0.00 0.00 0.00 0.00 0.00 0.00 0.00 0.01 0.02 0.00 0.00 0.00 0.01 0.02 0.03 0.03 0.04 0.05 0.06 0.06 0.05 0.07 0.08 0.08 0.08 0.10 0.11 0.07 0.05 0.06 0.03 0.01 0.00 0.00 0.00 0.00 0.00 0.00 0.00 0.00 0.00 0.00 0.00 0.00 0.00 0.00 0.00 0.00 0.00
0.00 0.00 0.00 0.00 0.00 0.01 0.00 0.00 0.00 0.00 0.00 0.00 0.00 0.00 0.00 0.00 0.01 0.02 0.02 0.01 0.02 0.03 0.03 0.04 0.03 0.04 0.06 0.07 0.08 0.09 0.08 0.07 0.05 0.04 0.02 0.00 0.00 0.00 0.00 0.00 0.00 0.01 0.00 0.00 0.00 0.00 0.00 0.00 0.00 0.00 0.00 0.00 0.00 0.00
0.00 0.00 0.00 0.00 0.00 0.00 0.00 0.00 0.00 0.00 0.01 0.01 0.00 0.00 0.00 0.01 0.01 0.02 0.02 0.03 0.02 0.03 0.03 0.04 0.04 0.04 0.05 0.05 0.05 0.04 0.04 0.03 0.01 0.00 0.00 0.00 0.00 0.00 0.00 0.00 0.00 0.00 0.00 0.00 0.00 0.00 0.00 0.00 0.00 0.00 0.00 0.00 0.00 0.00
0.00 0.00 0.00 0.00 0.00 0.00 0.01 0.00 0.00 0.01 0.01 0.01 0.00 0.00 0.01 0.03 0.05 0.03 0.04 0.03 0.02 0.02 0.03 0.03 0.05 0.05 0.05 0.05 0.05 0.04 0.02 0.00 0.00 0.00 0.00 0.00 0.00 0.00 0.00 0.00 0.00 0.00 0.00 0.00 0.00 0.00 0.00 0.00 0.00 0.00 0.00 0.00 0.00 0.00
0.00 0.00 0.00 0.00 0.00 0.00 0.01 0.01 0.00 0.00 0.00 0.00 0.00 0.00 0.01 0.04 0.07 0.04 0.03 0.03 0.03 0.03 0.04 0.04 0.05 0.03 0.04 0.04 0.04 0.02 0.00 0.00 0.00 0.00 0.00 0.00 0.00 0.00 0.00 0.00 0.00 0.00 0.00 0.00 0.00 0.00 0.00 0.00 0.00 0.00 0.00 0.00 0.00 0.00
0.00 0.00 0.00 0.00 0.01 0.01 0.00 0.00 0.00 0.00 0.00 0.00 0.00 0.00 0.01 0.03 0.02 0.02 0.03 0.04 0.02 0.03 0.03 0.03 0.03 0.04 0.03 0.01 0.01 0.00 0.00 0.00 0.00 0.00 0.00 0.00 0.00 0.00 0.00 0.00 0.00 0.00 0.00 0.00 0.00 0.00 0.00 0.00 0.00 0.00 0.00 0.00 0.00 0.00
0.00 0.00 0.00 0.00 0.00 0.00 0.01 0.01 0.00 0.00 0.00 0.00 0.00 0.00 0.00 0.00 0.00 0.00 0.02 0.03 0.01 0.02 0.03 0.02 0.02 0.02 0.01 0.00 0.00 0.00 0.00 0.00 0.00 0.00 0.00 0.00 0.00 0.00 0.00 0.00 0.00 0.00 0.00 0.00 0.00 0.00 0.00 0.00 0.00 0.00 0.00 0.00 0.00 0.00
0.00 0.00 0.00 0.00 0.00 0.00 0.01 0.02 0.00 0.00 0.01 0.00 0.01 0.01 0.01 0.00 0.00 0.01 0.02 0.02 0.01 0.01 0.01 0.01 0.01 0.00 0.00 0.00 0.00 0.00 0.00 0.00 0.00 0.00 0.00 0.00 0.00 0.00 0.00 0.00 0.00 0.00 0.00 0.00 0.00 0.00 0.00 0.00 0.00 0.00 0.00 0.00 0.00 0.00

GFSWCAN_prec_precacc6_090.txt.gz
Total_Precipitation_Accumulation
0.07 0.07 0.07 0.06 0.05 0.04 0.04 0.04 0.04 0.04 0.03 0.03 0.04 0.04 0.05 0.08 0.13 0.31 0.50 0.37 0.26 0.23 0.07 0.00 0.00 0.00 0.00 0.00 0.00 0.00 0.01 0.00 0.01 0.02 0.01 0.00 0.00 0.00 0.01 0.01 0.02 0.19 0.27 0.15 0.14 0.11 0.02 0.00 0.04 0.05 0.01 0.02 0.00 0.00
0.05 0.03 0.02 0.01 0.01 0.01 0.01 0.01 0.01 0.01 0.00 0.01 0.01 0.02 0.03 0.06 0.08 0.23 0.38 0.26 0.25 0.33 0.16 0.01 0.00 0.00 0.00 0.00 0.00 0.00 0.01 0.00 0.00 0.00 0.00 0.00 0.00 0.01 0.01 0.00 0.00 0.01 0.04 0.06 0.08 0.05 0.00 0.00 0.00 0.01 0.01 0.02 0.01 0.00
0.02 0.01 0.01 0.02 0.02 0.03 0.03 0.03 0.04 0.05 0.05 0.04 0.03 0.02 0.02 0.04 0.05 0.12 0.26 0.13 0.23 0.38 0.20 0.07 0.01 0.00 0.00 0.00 0.00 0.00 0.00 0.00 0.01 0.01 0.03 0.01 0.00 0.01 0.01 0.01 0.00 0.00 0.00 0.01 0.01 0.00 0.00 0.00 0.00 0.00 0.00 0.00 0.01 0.00
0.02 0.02 0.03 0.03 0.04 0.04 0.04 0.04 0.04 0.05 0.06 0.07 0.09 0.08 0.05 0.05 0.08 0.10 0.20 0.18 0.08 0.12 0.10 0.04 0.00 0.00 0.00 0.00 0.00 0.00 0.01 0.04 0.04 0.05 0.05 0.03 0.01 0.00 0.00 0.00 0.00 0.01 0.04 0.03 0.00 0.00 0.00 0.00 0.00 0.00 0.00 0.00 0.00 0.01
0.04 0.03 0.04 0.04 0.04 0.04 0.03 0.03 0.03 0.06 0.08 0.07 0.09 0.12 0.14 0.09 0.11 0.17 0.24 0.21 0.02 0.02 0.02 0.00 0.00 0.00 0.00 0.00 0.00 0.00 0.02 0.06 0.06 0.05 0.06 0.05 0.02 0.03 0.02 0.02 0.00 0.00 0.00 0.01 0.00 0.00 0.00 0.00 0.00 0.00 0.00 0.00 0.00 0.00
0.02 0.04 0.03 0.03 0.03 0.01 0.00 0.01 0.02 0.04 0.06 0.12 0.13 0.11 0.13 0.16 0.23 0.59 0.81 0.38 0.04 0.00 0.11 0.09 0.00 0.00 0.01 0.00 0.00 0.00 0.02 0.08 0.09 0.08 0.05 0.03 0.03 0.08 0.04 0.01 0.00 0.00 0.00 0.00 0.00 0.00 0.00 0.00 0.00 0.00 0.00 0.01 0.00 0.00
0.03 0.01 0.02 0.03 0.01 0.02 0.01 0.02 0.12 0.15 0.09 0.10 0.15 0.13 0.13 0.27 0.62 0.56 0.21 0.08 0.04 0.02 0.10 0.24 0.06 0.01 0.04 0.08 0.04 0.04 0.05 0.11 0.14 0.18 0.08 0.02 0.02 0.06 0.02 0.02 0.00 0.01 0.00 0.00 0.00 0.01 0.00 0.00 0.00 0.01 0.01 0.02 0.03 0.03
0.05 0.01 0.01 0.01 0.00 0.01 0.02 0.02 0.13 0.24 0.11 0.11 0.16 0.18 0.26 0.55 0.43 0.08 0.06 0.00 0.00 0.10 0.21 0.46 0.21 0.09 0.08 0.12 0.10 0.05 0.07 0.13 0.18 0.18 0.13 0.04 0.01 0.00 0.00 0.00 0.00 0.00 0.00 0.00 0.00 0.01 0.02 0.03 0.02 0.03 0.02 0.02 0.03 0.03
0.05 0.02 0.02 0.01 0.01 0.01 0.02 0.05 0.11 0.19 0.17 0.23 0.28 0.57 0.94 0.66 0.38 0.09 0.02 0.02 0.02 0.08 0.19 0.21 0.39 0.26 0.17 0.12 0.12 0.09 0.05 0.14 0.16 0.12 0.10 0.05 0.02 0.01 0.00 0.00 0.00 0.00 0.00 0.00 0.00 0.01 0.01 0.03 0.03 0.03 0.02 0.02 0.01 0.02
0.03 0.02 0.02 0.02 0.01 0.02 0.04 0.13 0.20 0.27 0.39 0.45 0.65 0.77 0.78 0.30 0.08 0.11 0.24 0.22 0.15 0.16 0.13 0.04 0.13 0.21 0.12 0.12 0.16 0.24 0.09 0.08 0.05 0.04 0.01 0.01 0.00 0.00 0.00 0.00 0.00 0.00 0.00 0.00 0.00 0.00 0.00 0.00 0.00 0.00 0.00 0.00 0.00 0.00
0.02 0.02 0.02 0.03 0.03 0.04 0.08 0.13 0.16 0.16 0.14 0.17 0.23 0.31 0.31 0.06 0.06 0.18 0.29 0.20 0.14 0.10 0.11 0.05 0.06 0.09 0.05 0.07 0.15 0.16 0.11 0.02 0.00 0.00 0.00 0.00 0.00 0.00 0.00 0.00 0.00 0.00 0.00 0.00 0.00 0.00 0.00 0.00 0.00 0.00 0.00 0.00 0.00 0.00
0.07 0.06 0.06 0.07 0.07 0.05 0.04 0.03 0.02 0.02 0.01 0.02 0.11 0.14 0.13 0.17 0.15 0.18 0.09 0.14 0.04 0.00 0.01 0.07 0.05 0.10 0.11 0.08 0.10 0.08 0.02 0.00 0.00 0.00 0.01 0.00 0.00 0.00 0.00 0.00 0.02 0.05 0.02 0.01 0.00 0.00 0.00 0.00 0.00 0.00 0.00 0.00 0.00 0.00
0.06 0.03 0.03 0.07 0.06 0.05 0.03 0.02 0.01 0.01 0.00 0.00 0.00 0.05 0.12 0.15 0.09 0.09 0.02 0.02 0.01 0.00 0.00 0.01 0.03 0.06 0.05 0.03 0.00 0.00 0.00 0.00 0.00 0.02 0.01 0.00 0.00 0.00 0.00 0.00 0.01 0.05 0.03 0.01 0.01 0.00 0.00 0.00 0.01 0.01 0.00 0.00 0.00 0.00
0.04 0.02 0.01 0.00 0.00 0.00 0.00 0.01 0.01 0.00 0.00 0.00 0.01 0.04 0.04 0.02 0.03 0.03 0.02 0.01 0.01 0.01 0.00 0.00 0.00 0.00 0.00 0.00 0.00 0.00 0.00 0.01 0.02 0.01 0.00 0.00 0.01 0.01 0.01 0.01 0.01 0.01 0.04 0.23 0.18 0.03 0.03 0.04 0.03 0.04 0.05 0.03 0.02 0.05
0.01 0.00 0.00 0.00 0.01 0.01 0.00 0.00 0.00 0.00 0.00 0.00 0.00 0.01 0.03 0.06 0.06 0.06 0.04 0.02 0.03 0.01 0.00 0.00 0.00 0.00 0.00 0.01 0.01 0.01 0.04 0.17 0.04 0.01 0.01 0.02 0.02 0.02 0.02 0.04 0.07 0.08 0.10 0.20 0.37 0.38 0.21 0.17 0.19 0.15 0.12 0.12 0.10 0.08
0.00 0.00 0.00 0.00 0.00 0.00 0.00 0.00 0.00 0.00 0.00 0.00 0.01 0.03 0.03 0.05 0.04 0.03 0.03 0.03 0.05 0.04 0.02 0.02 0.03 0.03 0.05 0.06 0.10 0.07 0.03 0.02 0.03 0.02 0.03 0.04 0.04 0.06 0.08 0.09 0.13 0.13 0.14 0.20 0.26 0.34 0.40 0.31 0.26 0.28 0.27 0.16 0.13 0.09
0.00 0.00 0.00 0.00 0.00 0.00 0.00 0.00 0.00 0.00 0.00 0.00 0.01 0.02 0.02 0.02 0.02 0.02 0.02 0.03 0.06 0.09 0.12 0.09 0.08 0.10 0.12 0.08 0.05 0.04 0.03 0.01 0.01 0.02 0.04 0.06 0.07 0.11 0.14 0.14 0.16 0.10 0.10 0.16 0.23 0.15 0.15 0.17 0.12 0.05 0.10 0.15 0.11 0.09
0.00 0.00 0.00 0.00 0.00 0.00 0.00 0.00 0.00 0.00 0.01 0.02 0.01 0.02 0.00 0.01 0.02 0.01 0.02 0.03 0.04 0.05 0.05 0.07 0.08 0.09 0.09 0.06 0.07 0.09 0.08 0.09 0.09 0.07 0.08 0.10 0.11 0.16 0.18 0.16 0.15 0.13 0.13 0.15 0.14 0.12 0.09 0.07 0.06 0.08 0.08 0.09 0.07 0.06
0.00 0.00 0.00 0.00 0.00 0.00 0.00 0.00 0.00 0.00 0.01 0.01 0.02 0.01 0.00 0.01 0.03 0.05 0.04 0.04 0.06 0.05 0.06 0.11 0.12 0.11 0.12 0.13 0.11 0.10 0.09 0.08 0.12 0.16 0.16 0.15 0.14 0.15 0.16 0.14 0.14 0.13 0.13 0.13 0.10 0.09 0.11 0.09 0.07 0.06 0.06 0.04 0.02 0.01
0.00 0.00 0.00 0.00 0.00 0.00 0.00 0.00 0.00 0.00 0.00 0.00 0.00 0.00 0.01 0.04 0.03 0.03 0.03 0.05 0.05 0.07 0.12 0.15 0.20 0.17 0.13 0.13 0.08 0.09 0.09 0.09 0.07 0.10 0.18 0.16 0.15 0.15 0.17 0.14 0.15 0.14 0.12 0.12 0.11 0.09 0.07 0.07 0.06 0.04 0.02 0.00 0.00 0.00
0.00 0.00 0.00 0.00 0.00 0.00 0.00 0.00 0.00 0.00 0.01 0.01 0.02 0.01 0.02 0.00 0.00 0.01 0.03 0.02 0.05 0.14 0.18 0.20 0.17 0.20 0.17 0.16 0.12 0.09 0.12 0.07 0.07 0.07 0.12 0.16 0.19 0.14 0.17 0.16 0.13 0.12 0.10 0.10 0.08 0.10 0.05 0.03 0.02 0.00 0.00 0.00 0.00 0.00
0.00 0.00 0.00 0.00 0.00 0.00 0.01 0.01 0.00 0.01 0.00 0.03 0.04 0.02 0.02 0.01 0.00 0.01 0.01 0.05 0.16 0.20 0.20 0.18 0.13 0.15 0.12 0.14 0.14 0.12 0.11 0.08 0.09 0.11 0.15 0.12 0.14 0.14 0.15 0.17 0.12 0.12 0.10 0.10 0.05 0.03 0.01 0.01 0.00 0.00 0.00 0.00 0.00 0.00
0.00 0.00 0.00 0.00 0.00 0.01 0.07 0.09 0.03 0.06 0.05 0.06 0.03 0.01 0.00 0.00 0.00 0.00 0.03 0.08 0.12 0.16 0.18 0.14 0.12 0.12 0.10 0.12 0.09 0.10 0.15 0.09 0.10 0.12 0.14 0.15 0.15 0.15 0.12 0.14 0.14 0.08 0.06 0.04 0.01 0.00 0.00 0.00 0.00 0.00 0.00 0.00 0.00 0.00
0.00 0.00 0.00 0.00 0.00 0.03 0.03 0.02 0.03 0.04 0.03 0.03 0.02 0.04 0.04 0.02 0.00 0.00 0.02 0.04 0.08 0.07 0.06 0.07 0.07 0.07 0.07 0.06 0.06 0.06 0.12 0.12 0.08 0.09 0.13 0.09 0.08 0.12 0.09 0.07 0.05 0.03 0.01 0.00 0.00 0.00 0.00 0.00 0.00 0.00 0.00 0.00 0.00 0.00
0.00 0.00 0.00 0.00 0.00 0.00 0.00 0.00 0.00 0.00 0.00 0.00 0.01 0.03 0.04 0.01 0.01 0.01 0.02 0.04 0.03 0.04 0.05 0.06 0.05 0.05 0.05 0.07 0.07 0.08 0.08 0.09 0.08 0.05 0.11 0.11 0.07 0.04 0.03 0.01 0.00 0.00 0.00 0.00 0.00 0.00 0.00 0.00 0.00 0.00 0.00 0.00 0.00 0.00
0.00 0.00 0.00 0.00 0.00 0.00 0.00 0.00 0.00 0.00 0.00 0.00 0.01 0.01 0.00 0.00 0.00 0.01 0.02 0.02 0.03 0.03 0.05 0.05 0.06 0.05 0.05 0.07 0.07 0.07 0.08 0.10 0.07 0.04 0.07 0.06 0.03 0.01 0.00 0.00 0.00 0.00 0.00 0.00 0.00 0.00 0.00 0.00 0.00 0.00 0.00 0.00 0.00 0.00
0.00 0.00 0.00 0.00 0.00 0.00 0.00 0.00 0.00 0.00 0.00 0.00 0.00 0.00 0.00 0.00 0.01 0.01 0.01 0.01 0.02 0.03 0.03 0.04 0.04 0.04 0.05 0.06 0.07 0.08 0.08 0.07 0.06 0.05 0.03 0.00 0.00 0.00 0.00 0.00 0.00 0.00 0.00 0.00 0.00 0.00 0.00 0.00 0.00 0.00 0.00 0.00 0.00 0.00
0.00 0.00 0.00 0.00 0.00 0.00 0.00 0.00 0.00 0.00 0.00 0.01 0.00 0.00 0.00 0.00 0.01 0.02 0.02 0.03 0.02 0.02 0.02 0.03 0.03 0.03 0.04 0.05 0.07 0.07 0.07 0.06 0.04 0.01 0.00 0.00 0.00 0.00 0.00 0.00 0.00 0.00 0.00 0.00 0.00 0.00 0.00 0.00 0.00 0.00 0.00 0.00 0.00 0.00
0.00 0.00 0.00 0.00 0.00 0.00 0.01 0.01 0.00 0.01 0.01 0.01 0.00 0.00 0.01 0.02 0.04 0.02 0.03 0.03 0.02 0.01 0.02 0.02 0.04 0.03 0.03 0.04 0.04 0.03 0.02 0.01 0.00 0.00 0.00 0.00 0.00 0.00 0.00 0.00 0.00 0.00 0.00 0.00 0.00 0.00 0.00 0.00 0.00 0.00 0.00 0.00 0.00 0.00
0.00 0.00 0.00 0.00 0.00 0.00 0.01 0.00 0.00 0.00 0.00 0.00 0.00 0.00 0.01 0.04 0.06 0.04 0.02 0.02 0.01 0.02 0.03 0.03 0.03 0.03 0.03 0.03 0.04 0.02 0.00 0.00 0.00 0.00 0.00 0.00 0.00 0.00 0.00 0.00 0.00 0.00 0.00 0.00 0.00 0.00 0.00 0.00 0.00 0.00 0.00 0.00 0.00 0.00
0.00 0.00 0.00 0.00 0.01 0.01 0.00 0.00 0.00 0.00 0.00 0.00 0.00 0.00 0.01 0.02 0.02 0.01 0.02 0.02 0.02 0.01 0.01 0.02 0.02 0.02 0.02 0.02 0.01 0.00 0.00 0.00 0.00 0.00 0.00 0.00 0.00 0.00 0.00 0.00 0.00 0.00 0.00 0.00 0.00 0.00 0.00 0.00 0.00 0.00 0.00 0.00 0.00 0.00
0.00 0.00 0.00 0.00 0.00 0.01 0.01 0.00 0.00 0.00 0.00 0.00 0.00 0.00 0.00 0.00 0.00 0.00 0.02 0.02 0.01 0.01 0.01 0.01 0.01 0.01 0.01 0.00 0.00 0.00 0.00 0.00 0.00 0.00 0.00 0.00 0.00 0.00 0.00 0.00 0.00 0.00 0.00 0.00 0.00 0.00 0.00 0.00 0.00 0.00 0.00 0.00 0.00 0.00
0.00 0.00 0.00 0.00 0.00 0.00 0.01 0.01 0.01 0.00 0.00 0.00 0.01 0.01 0.00 0.00 0.00 0.01 0.01 0.01 0.01 0.01 0.01 0.01 0.00 0.00 0.00 0.00 0.00 0.00 0.00 0.00 0.00 0.00 0.00 0.00 0.00 0.00 0.00 0.00 0.00 0.00 0.00 0.00 0.00 0.00 0.00 0.00 0.00 0.00 0.00 0.00 0.00 0.00

GFSWCAN_prec_precacc6_093.txt.gz
Total_Precipitation_Accumulation
0.07 0.08 0.08 0.08 0.09 0.09 0.08 0.09 0.10 0.11 0.10 0.09 0.08 0.10 0.12 0.13 0.16 0.31 0.43 0.18 0.23 0.33 0.13 0.00 0.00 0.00 0.00 0.00 0.02 0.01 0.08 0.04 0.06 0.12 0.04 0.01 0.00 0.00 0.00 0.00 0.01 0.06 0.25 0.27 0.20 0.18 0.04 0.01 0.04 0.11 0.15 0.06 0.02 0.01
0.06 0.06 0.05 0.05 0.04 0.04 0.03 0.02 0.03 0.03 0.04 0.05 0.06 0.07 0.09 0.12 0.16 0.30 0.49 0.28 0.20 0.37 0.25 0.02 0.00 0.00 0.00 0.00 0.00 0.01 0.03 0.00 0.03 0.01 0.00 0.00 0.00 0.00 0.00 0.00 0.00 0.00 0.01 0.07 0.22 0.16 0.04 0.00 0.00 0.02 0.02 0.04 0.03 0.02
0.02 0.02 0.02 0.02 0.02 0.02 0.02 0.02 0.02 0.02 0.01 0.01 0.01 0.02 0.04 0.08 0.11 0.22 0.43 0.23 0.33 0.58 0.36 0.11 0.01 0.00 0.00 0.00 0.00 0.00 0.00 0.00 0.02 0.02 0.09 0.08 0.02 0.00 0.00 0.00 0.00 0.00 0.00 0.00 0.00 0.00 0.01 0.00 0.00 0.00 0.00 0.00 0.01 0.01
0.03 0.04 0.05 0.06 0.06 0.06 0.05 0.05 0.04 0.04 0.04 0.04 0.03 0.02 0.01 0.04 0.07 0.14 0.30 0.30 0.21 0.30 0.19 0.10 0.00 0.00 0.00 0.00 0.00 0.00 0.00 0.01 0.02 0.06 0.09 0.10 0.07 0.03 0.01 0.00 0.00 0.00 0.03 0.02 0.00 0.00 0.00 0.00 0.00 0.00 0.00 0.00 0.00 0.00
0.11 0.10 0.08 0.07 0.07 0.08 0.09 0.08 0.05 0.06 0.07 0.07 0.06 0.06 0.06 0.03 0.07 0.13 0.19 0.22 0.14 0.06 0.09 0.03 0.00 0.00 0.00 0.00 0.00 0.00 0.01 0.04 0.06 0.09 0.13 0.08 0.02 0.01 0.00 0.00 0.00 0.00 0.00 0.00 0.00 0.00 0.00 0.00 0.00 0.00 0.00 0.00 0.00 0.00
0.06 0.05 0.04 0.04 0.05 0.03 0.02 0.02 0.03 0.03 0.04 0.07 0.09 0.07 0.10 0.10 0.14 0.40 0.59 0.33 0.08 0.04 0.12 0.03 0.00 0.00 0.00 0.00 0.00 0.00 0.00 0.02 0.08 0.15 0.08 0.01 0.01 0.02 0.00 0.00 0.00 0.00 0.00 0.00 0.00 0.00 0.00 0.00 0.00 0.00 0.00 0.00 0.00 0.00
0.04 0.02 0.04 0.03 0.01 0.01 0.01 0.01 0.02 0.03 0.03 0.06 0.08 0.10 0.11 0.24 0.42 0.47 0.20 0.08 0.04 0.04 0.12 0.04 0.00 0.00 0.00 0.04 0.02 0.01 0.01 0.03 0.09 0.27 0.22 0.05 0.00 0.02 0.00 0.00 0.00 0.00 0.00 0.00 0.00 0.00 0.00 0.00 0.00 0.01 0.00 0.00 0.01 0.01
0.04 0.01 0.01 0.00 0.01 0.01 0.01 0.02 0.05 0.11 0.05 0.04 0.07 0.16 0.22 0.51 0.45 0.10 0.03 0.01 0.00 0.10 0.10 0.01 0.05 0.07 0.02 0.03 0.06 0.04 0.02 0.05 0.14 0.18 0.16 0.08 0.02 0.01 0.01 0.00 0.00 0.00 0.00 0.00 0.00 0.00 0.00 0.00 0.00 0.01 0.01 0.01 0.01 0.02
0.04 0.00 0.01 0.01 0.01 0.02 0.02 0.05 0.11 0.19 0.14 0.16 0.22 0.58 1.02 0.94 0.60 0.19 0.03 0.02 0.01 0.03 0.05 0.02 0.19 0.20 0.11 0.05 0.09 0.12 0.07 0.17 0.20 0.16 0.12 0.07 0.04 0.02 0.00 0.00 0.00 0.00 0.00 0.00 0.00 0.00 0.00 0.00 0.00 0.01 0.01 0.01 0.01 0.01
0.01 0.01 0.02 0.02 0.03 0.05 0.09 0.17 0.28 0.37 0.41 0.49 0.91 1.16 1.08 0.46 0.10 0.12 0.27 0.27 0.16 0.05 0.00 0.00 0.08 0.18 0.17 0.07 0.12 0.45 0.16 0.12 0.13 0.06 0.03 0.05 0.01 0.00 0.00 0.00 0.00 0.00 0.00 0.00 0.00 0.00 0.00 0.00 0.00 0.00 0.00 0.01 0.01 0.00
0.02 0.04 0.08 0.05 0.05 0.08 0.16 0.26 0.37 0.40 0.35 0.48 0.53 0.37 0.32 0.10 0.05 0.08 0.22 0.09 0.05 0.03 0.01 0.01 0.05 0.09 0.06 0.11 0.18 0.23 0.38 0.10 0.03 0.01 0.01 0.01 0.00 0.00 0.00 0.00 0.00 0.00 0.00 0.00 0.00 0.00 0.00 0.00 0.00 0.00 0.00 0.00 0.00 0.00
0.07 0.06 0.05 0.04 0.04 0.05 0.08 0.10 0.11 0.09 0.11 0.10 0.15 0.12 0.14 0.12 0.08 0.12 0.04 0.06 0.03 0.00 0.01 0.07 0.05 0.10 0.12 0.15 0.28 0.18 0.14 0.14 0.01 0.00 0.01 0.00 0.00 0.00 0.00 0.00 0.00 0.00 0.00 0.00 0.00 0.00 0.00 0.00 0.00 0.00 0.00 0.00 0.00 0.00
0.12 0.10 0.10 0.09 0.07 0.05 0.04 0.03 0.01 0.00 0.00 0.00 0.00 0.03 0.07 0.11 0.07 0.08 0.01 0.03 0.01 0.00 0.00 0.01 0.04 0.10 0.15 0.10 0.26 0.16 0.05 0.05 0.01 0.02 0.01 0.00 0.00 0.00 0.00 0.00 0.00 0.00 0.00 0.00 0.00 0.00 0.00 0.00 0.00 0.00 0.00 0.01 0.01 0.01
0.05 0.02 0.01 0.00 0.00 0.00 0.01 0.01 0.01 0.00 0.00 0.00 0.01 0.04 0.05 0.02 0.03 0.03 0.01 0.01 0.02 0.02 0.00 0.00 0.01 0.07 0.10 0.05 0.02 0.02 0.01 0.01 0.02 0.02 0.00 0.00 0.01 0.00 0.00 0.00 0.00 0.00 0.00 0.01 0.00 0.00 0.00 0.01 0.01 0.01 0.03 0.02 0.01 0.03
0.00 0.00 0.01 0.01 0.01 0.01 0.00 0.00 0.00 0.00 0.00 0.00 0.00 0.01 0.02 0.04 0.04 0.05 0.04 0.03 0.03 0.02 0.00 0.00 0.00 0.00 0.01 0.01 0.00 0.00 0.00 0.00 0.01 0.00 0.01 0.01 0.01 0.01 0.02 0.03 0.03 0.03 0.03 0.05 0.07 0.10 0.10 0.10 0.17 0.16 0.11 0.12 0.13 0.16
0.00 0.01 0.02 0.00 0.00 0.00 0.00 0.00 0.00 0.00 0.00 0.00 0.01 0.02 0.02 0.05 0.04 0.04 0.05 0.05 0.05 0.04 0.02 0.01 0.00 0.00 0.00 0.00 0.01 0.00 0.00 0.00 0.01 0.01 0.02 0.02 0.02 0.03 0.05 0.08 0.13 0.15 0.16 0.17 0.23 0.35 0.41 0.32 0.28 0.32 0.36 0.28 0.22 0.16
0.00 0.00 0.00 0.00 0.00 0.00 0.00 0.00 0.00 0.00 0.00 0.00 0.01 0.02 0.03 0.02 0.02 0.03 0.04 0.04 0.07 0.07 0.04 0.02 0.02 0.01 0.02 0.02 0.02 0.01 0.01 0.01 0.01 0.01 0.02 0.04 0.05 0.08 0.11 0.13 0.18 0.16 0.14 0.22 0.31 0.26 0.28 0.34 0.31 0.19 0.17 0.22 0.20 0.16
0.00 0.00 0.00 0.00 0.00 0.00 0.00 0.00 0.00 0.00 0.01 0.02 0.02 0.03 0.01 0.02 0.02 0.01 0.03 0.05 0.07 0.06 0.04 0.04 0.04 0.04 0.05 0.04 0.05 0.07 0.06 0.06 0.07 0.05 0.05 0.08 0.10 0.15 0.16 0.16 0.18 0.19 0.16 0.23 0.29 0.22 0.20 0.20 0.19 0.16 0.11 0.10 0.07 0.08
0.00 0.00 0.00 0.00 0.00 0.00 0.00 0.00 0.00 0.00 0.01 0.01 0.01 0.00 0.00 0.01 0.03 0.04 0.04 0.04 0.06 0.04 0.04 0.08 0.08 0.07 0.10 0.11 0.11 0.09 0.08 0.06 0.08 0.12 0.14 0.14 0.14 0.17 0.18 0.18 0.18 0.21 0.20 0.21 0.21 0.18 0.17 0.14 0.11 0.09 0.07 0.05 0.03 0.04
0.00 0.00 0.00 0.00 0.00 0.00 0.00 0.00 0.00 0.00 0.00 0.00 0.00 0.00 0.01 0.04 0.04 0.04 0.03 0.04 0.03 0.03 0.06 0.10 0.15 0.14 0.14 0.14 0.10 0.07 0.04 0.04 0.03 0.07 0.15 0.15 0.15 0.16 0.17 0.16 0.17 0.16 0.15 0.15 0.14 0.12 0.09 0.09 0.10 0.07 0.05 0.03 0.01 0.00
0.00 0.00 0.00 0.00 0.00 0.00 0.00 0.00 0.00 0.00 0.00 0.00 0.01 0.01 0.02 0.01 0.02 0.03 0.05 0.03 0.03 0.10 0.15 0.17 0.16 0.17 0.16 0.13 0.10 0.07 0.08 0.05 0.04 0.04 0.11 0.13 0.14 0.12 0.15 0.15 0.12 0.11 0.09 0.09 0.08 0.12 0.08 0.05 0.05 0.03 0.01 0.00 0.00 0.00
0.00 0.00 0.00 0.00 0.00 0.00 0.00 0.00 0.00 0.00 0.00 0.01 0.02 0.01 0.01 0.02 0.03 0.05 0.03 0.06 0.13 0.17 0.16 0.15 0.13 0.12 0.10 0.09 0.10 0.09 0.11 0.07 0.06 0.06 0.08 0.08 0.10 0.11 0.13 0.16 0.12 0.12 0.11 0.11 0.07 0.06 0.04 0.02 0.00 0.00 0.00 0.00 0.00 0.00
0.00 0.00 0.00 0.00 0.00 0.00 0.06 0.06 0.01 0.04 0.04 0.05 0.03 0.01 0.01 0.01 0.01 0.00 0.05 0.10 0.11 0.13 0.15 0.11 0.10 0.09 0.09 0.11 0.08 0.08 0.12 0.09 0.08 0.09 0.11 0.11 0.12 0.14 0.11 0.15 0.16 0.10 0.07 0.08 0.03 0.01 0.00 0.00 0.00 0.00 0.00 0.00 0.00 0.00
0.00 0.00 0.00 0.00 0.00 0.01 0.01 0.01 0.02 0.03 0.02 0.02 0.02 0.03 0.03 0.02 0.00 0.00 0.03 0.05 0.08 0.08 0.06 0.07 0.07 0.06 0.06 0.06 0.07 0.06 0.10 0.13 0.08 0.08 0.12 0.11 0.08 0.13 0.12 0.11 0.10 0.08 0.03 0.01 0.00 0.00 0.00 0.00 0.00 0.00 0.00 0.00 0.00 0.00
0.00 0.00 0.00 0.00 0.00 0.00 0.00 0.00 0.00 0.00 0.01 0.01 0.01 0.03 0.03 0.01 0.01 0.02 0.02 0.03 0.03 0.05 0.06 0.06 0.06 0.05 0.05 0.06 0.07 0.07 0.06 0.08 0.09 0.05 0.11 0.13 0.10 0.08 0.06 0.03 0.01 0.00 0.00 0.00 0.00 0.00 0.00 0.00 0.00 0.00 0.00 0.00 0.00 0.00
0.00 0.00 0.00 0.00 0.00 0.00 0.00 0.00 0.00 0.00 0.00 0.00 0.00 0.00 0.00 0.00 0.00 0.01 0.02 0.03 0.03 0.04 0.05 0.06 0.06 0.05 0.05 0.06 0.06 0.06 0.06 0.08 0.08 0.05 0.08 0.08 0.07 0.04 0.01 0.00 0.00 0.00 0.00 0.00 0.00 0.00 0.00 0.00 0.00 0.00 0.00 0.00 0.00 0.00
0.00 0.00 0.00 0.00 0.00 0.00 0.00 0.00 0.00 0.00 0.00 0.00 0.00 0.00 0.00 0.00 0.00 0.01 0.02 0.01 0.02 0.03 0.03 0.03 0.04 0.04 0.05 0.07 0.07 0.08 0.07 0.07 0.06 0.04 0.02 0.00 0.00 0.00 0.00 0.00 0.00 0.00 0.00 0.00 0.00 0.00 0.00 0.00 0.00 0.00 0.00 0.00 0.00 0.00
0.00 0.00 0.00 0.00 0.00 0.00 0.00 0.00 0.00 0.00 0.00 0.00 0.00 0.00 0.00 0.00 0.01 0.02 0.02 0.03 0.02 0.02 0.02 0.02 0.03 0.03 0.03 0.05 0.06 0.07 0.07 0.07 0.06 0.02 0.00 0.00 0.00 0.00 0.00 0.00 0.00 0.00 0.00 0.00 0.00 0.00 0.00 0.00 0.00 0.00 0.00 0.00 0.00 0.00
0.00 0.00 0.00 0.00 0.00 0.00 0.01 0.01 0.01 0.01 0.01 0.00 0.00 0.00 0.01 0.02 0.04 0.03 0.03 0.03 0.02 0.01 0.01 0.02 0.03 0.03 0.03 0.03 0.03 0.03 0.02 0.02 0.01 0.00 0.00 0.00 0.00 0.00 0.00 0.00 0.00 0.00 0.00 0.00 0.00 0.00 0.00 0.00 0.00 0.00 0.00 0.00 0.00 0.00
0.00 0.00 0.00 0.00 0.00 0.00 0.01 0.00 0.00 0.01 0.00 0.00 0.00 0.00 0.01 0.03 0.05 0.04 0.02 0.02 0.01 0.01 0.02 0.02 0.02 0.02 0.03 0.02 0.03 0.01 0.00 0.00 0.00 0.00 0.00 0.00 0.00 0.00 0.00 0.00 0.00 0.00 0.00 0.00 0.00 0.00 0.00 0.00 0.00 0.00 0.00 0.00 0.00 0.00
0.00 0.00 0.00 0.00 0.00 0.00 0.00 0.00 0.00 0.00 0.00 0.00 0.00 0.00 0.01 0.02 0.01 0.01 0.01 0.02 0.02 0.01 0.01 0.01 0.01 0.01 0.01 0.01 0.00 0.00 0.00 0.00 0.00 0.00 0.00 0.00 0.00 0.00 0.00 0.00 0.00 0.00 0.00 0.00 0.00 0.00 0.00 0.00 0.00 0.00 0.00 0.00 0.00 0.00
0.00 0.00 0.00 0.00 0.00 0.00 0.00 0.00 0.00 0.00 0.00 0.00 0.00 0.00 0.00 0.00 0.00 0.00 0.02 0.02 0.01 0.01 0.01 0.01 0.00 0.00 0.00 0.00 0.00 0.00 0.00 0.00 0.00 0.00 0.00 0.00 0.00 0.00 0.00 0.00 0.00 0.00 0.00 0.00 0.00 0.00 0.00 0.00 0.00 0.00 0.00 0.00 0.00 0.00
0.00 0.00 0.00 0.00 0.00 0.00 0.00 0.01 0.00 0.00 0.00 0.00 0.00 0.00 0.00 0.00 0.00 0.01 0.01 0.01 0.01 0.01 0.00 0.00 0.00 0.00 0.00 0.00 0.00 0.00 0.00 0.00 0.00 0.00 0.00 0.00 0.00 0.00 0.00 0.00 0.00 0.00 0.00 0.00 0.00 0.00 0.00 0.00 0.00 0.00 0.00 0.00 0.00 0.00

GFSWCAN_prec_precacc6_099.txt.gz
Total_Precipitation_Accumulation
0.03 0.02 0.02 0.02 0.03 0.03 0.03 0.03 0.03 0.03 0.02 0.03 0.03 0.04 0.04 0.04 0.04 0.09 0.07 0.05 0.06 0.04 0.02 0.00 0.00 0.05 0.10 0.13 0.13 0.14 0.17 0.09 0.09 0.13 0.08 0.05 0.03 0.01 0.00 0.01 0.05 0.05 0.06 0.05 0.04 0.08 0.03 0.02 0.10 0.10 0.06 0.03 0.04 0.02
0.01 0.02 0.02 0.03 0.04 0.04 0.05 0.06 0.05 0.05 0.04 0.04 0.04 0.05 0.05 0.07 0.08 0.13 0.21 0.10 0.08 0.10 0.08 0.02 0.00 0.00 0.00 0.03 0.06 0.07 0.08 0.08 0.14 0.10 0.12 0.09 0.04 0.02 0.01 0.01 0.00 0.01 0.01 0.03 0.06 0.06 0.01 0.02 0.07 0.09 0.08 0.03 0.07 0.06
0.02 0.02 0.02 0.02 0.03 0.03 0.04 0.04 0.05 0.04 0.04 0.04 0.05 0.06 0.09 0.09 0.10 0.20 0.24 0.13 0.17 0.31 0.27 0.05 0.01 0.00 0.00 0.00 0.01 0.05 0.02 0.01 0.05 0.10 0.15 0.11 0.06 0.02 0.02 0.01 0.01 0.00 0.00 0.00 0.01 0.00 0.01 0.05 0.06 0.05 0.07 0.01 0.02 0.01
0.01 0.02 0.04 0.05 0.05 0.04 0.04 0.03 0.02 0.03 0.04 0.03 0.03 0.04 0.05 0.11 0.15 0.21 0.31 0.26 0.16 0.33 0.21 0.06 0.00 0.00 0.00 0.00 0.01 0.01 0.01 0.02 0.03 0.09 0.17 0.11 0.07 0.04 0.02 0.02 0.01 0.01 0.00 0.00 0.00 0.00 0.00 0.00 0.00 0.01 0.01 0.00 0.00 0.03
0.03 0.06 0.07 0.08 0.08 0.06 0.04 0.04 0.04 0.02 0.02 0.03 0.03 0.03 0.04 0.06 0.16 0.28 0.35 0.32 0.10 0.11 0.14 0.05 0.01 0.00 0.00 0.00 0.00 0.02 0.04 0.05 0.09 0.17 0.19 0.06 0.03 0.04 0.02 0.02 0.01 0.00 0.00 0.00 0.00 0.00 0.00 0.00 0.00 0.00 0.00 0.00 0.01 0.04
0.09 0.09 0.09 0.07 0.04 0.03 0.03 0.03 0.03 0.02 0.01 0.02 0.03 0.03 0.04 0.03 0.13 0.50 0.78 0.55 0.15 0.09 0.27 0.07 0.02 0.00 0.00 0.00 0.00 0.00 0.02 0.07 0.15 0.25 0.13 0.07 0.03 0.07 0.06 0.02 0.00 0.00 0.00 0.00 0.00 0.00 0.00 0.00 0.00 0.00 0.00 0.00 0.01 0.02
0.07 0.05 0.03 0.03 0.02 0.01 0.02 0.02 0.02 0.03 0.03 0.02 0.02 0.04 0.07 0.07 0.15 0.40 0.20 0.14 0.15 0.18 0.33 0.15 0.02 0.01 0.00 0.00 0.01 0.01 0.03 0.08 0.15 0.26 0.11 0.04 0.03 0.10 0.09 0.02 0.00 0.00 0.00 0.00 0.00 0.00 0.00 0.00 0.00 0.00 0.00 0.00 0.01 0.01
0.04 0.03 0.00 0.00 0.00 0.00 0.00 0.01 0.02 0.02 0.07 0.04 0.04 0.08 0.17 0.25 0.25 0.24 0.03 0.01 0.02 0.14 0.19 0.11 0.03 0.02 0.00 0.01 0.01 0.00 0.01 0.05 0.08 0.09 0.06 0.05 0.05 0.09 0.09 0.00 0.00 0.00 0.00 0.00 0.00 0.00 0.00 0.00 0.00 0.00 0.00 0.00 0.00 0.01
0.01 0.01 0.00 0.00 0.00 0.00 0.00 0.00 0.01 0.02 0.04 0.07 0.15 0.37 0.77 0.88 0.38 0.19 0.06 0.06 0.03 0.08 0.10 0.03 0.02 0.03 0.01 0.02 0.03 0.02 0.03 0.05 0.06 0.05 0.02 0.04 0.03 0.03 0.01 0.00 0.00 0.00 0.00 0.00 0.00 0.00 0.00 0.00 0.00 0.00 0.00 0.00 0.01 0.01
0.10 0.09 0.03 0.01 0.02 0.01 0.01 0.01 0.01 0.03 0.06 0.22 0.82 1.37 1.02 0.44 0.04 0.23 0.47 0.28 0.18 0.08 0.04 0.02 0.01 0.03 0.01 0.03 0.06 0.09 0.07 0.04 0.03 0.01 0.02 0.05 0.02 0.00 0.00 0.00 0.00 0.00 0.00 0.00 0.00 0.00 0.00 0.00 0.00 0.00 0.00 0.00 0.01 0.01
0.03 0.03 0.01 0.05 0.08 0.06 0.07 0.16 0.16 0.08 0.13 0.58 0.85 0.37 0.16 0.07 0.15 0.27 0.29 0.16 0.12 0.06 0.02 0.00 0.01 0.03 0.01 0.03 0.05 0.10 0.26 0.08 0.04 0.02 0.03 0.02 0.00 0.00 0.00 0.00 0.00 0.00 0.00 0.00 0.00 0.00 0.00 0.00 0.00 0.00 0.00 0.00 0.00 0.00
0.07 0.02 0.03 0.05 0.08 0.14 0.21 0.28 0.17 0.06 0.13 0.30 0.19 0.14 0.13 0.25 0.26 0.13 0.08 0.03 0.01 0.01 0.00 0.00 0.01 0.04 0.01 0.04 0.07 0.04 0.07 0.19 0.13 0.06 0.06 0.02 0.01 0.00 0.00 0.00 0.00 0.00 0.00 0.00 0.00 0.00 0.00 0.00 0.00 0.00 0.00 0.00 0.00 0.00
0.10 0.04 0.05 0.14 0.22 0.28 0.28 0.19 0.05 0.02 0.01 0.01 0.01 0.13 0.11 0.08 0.04 0.03 0.02 0.01 0.00 0.01 0.00 0.01 0.02 0.02 0.01 0.00 0.03 0.10 0.05 0.05 0.04 0.07 0.05 0.01 0.00 0.00 0.00 0.00 0.00 0.00 0.00 0.00 0.00 0.00 0.00 0.00 0.00 0.00 0.00 0.00 0.00 0.01
0.05 0.06 0.05 0.10 0.16 0.17 0.17 0.08 0.03 0.03 0.03 0.02 0.02 0.03 0.01 0.00 0.01 0.02 0.01 0.00 0.01 0.01 0.01 0.01 0.03 0.05 0.03 0.01 0.03 0.14 0.13 0.09 0.08 0.04 0.02 0.01 0.00 0.01 0.00 0.00 0.00 0.00 0.00 0.00 0.00 0.00 0.00 0.00 0.01 0.01 0.01 0.02 0.02 0.02
0.01 0.03 0.04 0.04 0.04 0.05 0.05 0.04 0.01 0.00 0.00 0.00 0.00 0.00 0.01 0.01 0.01 0.01 0.01 0.01 0.01 0.01 0.02 0.05 0.06 0.16 0.13 0.10 0.03 0.03 0.05 0.06 0.05 0.02 0.01 0.01 0.00 0.00 0.00 0.00 0.00 0.01 0.01 0.02 0.02 0.02 0.02 0.02 0.02 0.03 0.04 0.05 0.04 0.06
0.00 0.01 0.00 0.00 0.00 0.01 0.01 0.00 0.00 0.00 0.00 0.00 0.00 0.01 0.02 0.02 0.02 0.02 0.02 0.02 0.02 0.03 0.04 0.06 0.10 0.09 0.14 0.09 0.06 0.03 0.03 0.03 0.02 0.01 0.01 0.00 0.00 0.00 0.00 0.01 0.01 0.01 0.01 0.02 0.03 0.04 0.03 0.04 0.05 0.07 0.08 0.10 0.15 0.16
0.00 0.00 0.00 0.00 0.00 0.00 0.00 0.00 0.00 0.00 0.00 0.00 0.01 0.01 0.02 0.02 0.02 0.02 0.02 0.02 0.03 0.07 0.08 0.06 0.08 0.04 0.03 0.04 0.02 0.01 0.02 0.02 0.01 0.01 0.01 0.01 0.02 0.01 0.01 0.01 0.02 0.02 0.02 0.03 0.04 0.08 0.12 0.09 0.09 0.10 0.14 0.19 0.20 0.22
0.00 0.00 0.00 0.00 0.00 0.00 0.00 0.00 0.00 0.00 0.00 0.01 0.02 0.03 0.01 0.02 0.02 0.02 0.03 0.03 0.04 0.04 0.03 0.02 0.02 0.01 0.02 0.02 0.03 0.03 0.02 0.01 0.01 0.01 0.02 0.02 0.03 0.03 0.02 0.02 0.02 0.03 0.03 0.06 0.07 0.08 0.09 0.12 0.12 0.17 0.19 0.20 0.20 0.22
0.00 0.00 0.00 0.00 0.00 0.00 0.00 0.00 0.00 0.00 0.01 0.01 0.02 0.02 0.01 0.02 0.03 0.03 0.04 0.05 0.05 0.04 0.02 0.03 0.03 0.03 0.04 0.04 0.04 0.04 0.02 0.02 0.02 0.02 0.03 0.03 0.04 0.04 0.05 0.04 0.04 0.07 0.09 0.11 0.16 0.17 0.13 0.15 0.22 0.23 0.20 0.21 0.20 0.23
0.00 0.00 0.00 0.00 0.00 0.00 0.00 0.00 0.00 0.00 0.00 0.00 0.01 0.01 0.01 0.03 0.03 0.03 0.03 0.02 0.03 0.04 0.05 0.05 0.06 0.05 0.05 0.05 0.07 0.07 0.04 0.03 0.02 0.02 0.02 0.03 0.04 0.04 0.07 0.08 0.09 0.10 0.10 0.11 0.16 0.18 0.13 0.13 0.18 0.21 0.21 0.20 0.12 0.13
0.00 0.00 0.00 0.00 0.00 0.00 0.00 0.00 0.00 0.00 0.00 0.00 0.01 0.01 0.02 0.02 0.03 0.03 0.02 0.01 0.01 0.04 0.06 0.06 0.07 0.08 0.09 0.09 0.08 0.05 0.04 0.02 0.02 0.02 0.03 0.03 0.04 0.05 0.07 0.10 0.11 0.11 0.10 0.10 0.11 0.16 0.15 0.11 0.14 0.14 0.13 0.11 0.07 0.03
0.00 0.00 0.00 0.00 0.00 0.00 0.00 0.00 0.00 0.00 0.00 0.01 0.02 0.01 0.03 0.04 0.05 0.07 0.04 0.04 0.08 0.09 0.09 0.09 0.09 0.10 0.08 0.06 0.04 0.03 0.03 0.02 0.03 0.03 0.04 0.04 0.05 0.06 0.08 0.10 0.08 0.09 0.11 0.12 0.10 0.11 0.12 0.08 0.07 0.06 0.04 0.02 0.01 0.01
0.00 0.00 0.00 0.00 0.00 0.00 0.03 0.03 0.02 0.03 0.02 0.03 0.01 0.01 0.02 0.03 0.04 0.02 0.05 0.08 0.08 0.08 0.08 0.07 0.07 0.07 0.05 0.04 0.03 0.03 0.03 0.03 0.03 0.04 0.05 0.06 0.06 0.07 0.08 0.09 0.12 0.08 0.06 0.10 0.09 0.06 0.04 0.03 0.01 0.00 0.00 0.00 0.00 0.00
0.00 0.00 0.00 0.00 0.00 0.01 0.00 0.00 0.00 0.01 0.01 0.01 0.00 0.02 0.02 0.03 0.01 0.00 0.03 0.04 0.05 0.04 0.03 0.04 0.03 0.04 0.03 0.02 0.02 0.03 0.05 0.06 0.05 0.05 0.07 0.07 0.05 0.08 0.08 0.08 0.10 0.10 0.06 0.04 0.03 0.01 0.00 0.00 0.00 0.00 0.00 0.00 0.00 0.00
0.00 0.00 0.00 0.00 0.00 0.00 0.00 0.00 0.00 0.00 0.00 0.00 0.00 0.01 0.01 0.01 0.00 0.01 0.01 0.02 0.03 0.03 0.03 0.03 0.03 0.03 0.03 0.04 0.04 0.04 0.05 0.07 0.07 0.04 0.08 0.10 0.07 0.06 0.07 0.05 0.04 0.03 0.02 0.00 0.00 0.00 0.00 0.00 0.00 0.00 0.00 0.00 0.00 0.00
0.00 0.00 0.00 0.00 0.00 0.00 0.00 0.00 0.00 0.00 0.00 0.00 0.00 0.00 0.00 0.00 0.00 0.01 0.01 0.01 0.02 0.02 0.03 0.04 0.03 0.03 0.03 0.04 0.04 0.04 0.05 0.05 0.06 0.04 0.06 0.07 0.09 0.07 0.04 0.01 0.00 0.00 0.00 0.00 0.00 0.00 0.00 0.00 0.00 0.00 0.00 0.00 0.00 0.00
0.00 0.00 0.00 0.00 0.00 0.00 0.00 0.00 0.00 0.00 0.00 0.00 0.00 0.00 0.00 0.00 0.00 0.01 0.01 0.02 0.02 0.02 0.02 0.03 0.03 0.03 0.03 0.04 0.05 0.05 0.05 0.05 0.05 0.05 0.03 0.02 0.01 0.01 0.00 0.00 0.00 0.00 0.00 0.00 0.00 0.00 0.00 0.00 0.00 0.00 0.00 0.00 0.00 0.00
0.00 0.00 0.00 0.00 0.00 0.00 0.00 0.00 0.00 0.00 0.00 0.00 0.00 0.00 0.00 0.00 0.02 0.02 0.02 0.02 0.02 0.02 0.02 0.02 0.02 0.02 0.02 0.03 0.04 0.05 0.05 0.06 0.06 0.04 0.02 0.01 0.01 0.00 0.00 0.00 0.00 0.00 0.00 0.00 0.00 0.00 0.00 0.00 0.00 0.00 0.00 0.00 0.00 0.00
0.00 0.00 0.00 0.00 0.00 0.00 0.00 0.00 0.01 0.01 0.01 0.00 0.00 0.00 0.01 0.01 0.02 0.03 0.02 0.02 0.02 0.02 0.02 0.02 0.02 0.02 0.02 0.02 0.03 0.03 0.03 0.04 0.05 0.05 0.04 0.03 0.01 0.01 0.00 0.00 0.00 0.00 0.00 0.00 0.00 0.00 0.00 0.00 0.00 0.00 0.00 0.00 0.00 0.00
0.00 0.00 0.00 0.00 0.00 0.01 0.02 0.01 0.01 0.01 0.00 0.00 0.00 0.00 0.01 0.02 0.03 0.02 0.02 0.02 0.02 0.02 0.02 0.02 0.02 0.02 0.02 0.02 0.02 0.02 0.02 0.01 0.01 0.02 0.01 0.01 0.01 0.01 0.00 0.00 0.00 0.00 0.00 0.00 0.00 0.00 0.00 0.00 0.00 0.00 0.00 0.00 0.00 0.00
0.00 0.00 0.00 0.00 0.01 0.01 0.01 0.01 0.00 0.00 0.00 0.00 0.00 0.00 0.01 0.02 0.02 0.01 0.01 0.02 0.02 0.02 0.01 0.01 0.01 0.01 0.01 0.01 0.01 0.01 0.01 0.01 0.00 0.00 0.00 0.00 0.00 0.00 0.00 0.00 0.00 0.00 0.00 0.00 0.00 0.00 0.00 0.00 0.00 0.00 0.00 0.00 0.00 0.00
0.00 0.00 0.00 0.00 0.01 0.00 0.00 0.01 0.00 0.00 0.01 0.00 0.00 0.00 0.00 0.00 0.00 0.01 0.01 0.01 0.01 0.00 0.00 0.00 0.00 0.00 0.00 0.00 0.00 0.00 0.00 0.00 0.00 0.00 0.00 0.00 0.00 0.00 0.00 0.00 0.00 0.00 0.00 0.00 0.00 0.00 0.00 0.00 0.00 0.00 0.00 0.00 0.00 0.00
0.00 0.00 0.00 0.00 0.00 0.00 0.00 0.00 0.00 0.00 0.00 0.00 0.00 0.00 0.00 0.00 0.00 0.01 0.01 0.01 0.00 0.00 0.00 0.00 0.00 0.00 0.00 0.00 0.00 0.00 0.00 0.00 0.00 0.00 0.00 0.00 0.00 0.00 0.00 0.00 0.00 0.00 0.00 0.00 0.00 0.00 0.00 0.00 0.00 0.00 0.00 0.00 0.00 0.00